Location: Ravensburg
(47.7866°N, 9.6124°E)
Time: 19:08:33
(UTC+01:00)

ISS - Pass Details

Date: 13 November 2025
Orbit: 416 x 421 km, 51.6° (Epoch: 05 December)

Event Time Altitude Azimuth Distance (km) Brightness Sun altitude
Rises 18:04:36 0° 199° (SSW) 2,356 0.5 -13.1°
Reaches altitude 10° 18:07:13 10° 178° (S) 1,495 -0.8 -13.6°
Maximum altitude 18:09:25 17° 137° (SE) 1,163 -1.8 -13.9°
Enters shadow 18:09:50 16° 127° (SE) 1,177 -1.9 -14.0°
